Location: Banff
(51.1667°N, 115.5667°W)
Time: 12:50:55
(UTC+00:00)

Vanguard 1 Rocket - Pass Details

Date: 01 December 2020
Orbit: 655 x 4222 km, 34.3° (Epoch: 23 January)

Event Time Altitude Azimuth Distance (km) Brightness Sun altitude
Rises 14:42:24 0° 277° (W) 7,841 - -6.5°
Exits shadow 14:43:32 - 276° (W) 7,610 11.5 -6.4°
Reaches altitude 10° 14:50:28 10° 264° (W) 6,195 11.1 -5.4°
Maximum altitude 15:00:58 19° 228° (SW) 4,408 10.7 -4.0°
Drops below altitude 10° 15:08:26 10° 189° (S) 4,201 11.1 -3.0°
Sets 15:12:24 0° 171° (S) 4,668 11.7 -2.5°
